CW0018 Weather Reports


time (UTC)temp
C
wind
direction
speed
KPH
gust
KPH
rain 1hr
cm
rain 24hr
cm
rain mn
cm
humidity
%
barometer
mb
20260510011733 25 0 0.0 3.2 0.00 0.00 0.00 74 1008.3
20260510011233 25 0 1.6 4.8 0.00 0.00 0.00 73 1008.2
20260510010735 25 122 1.6 6.4 0.00 0.00 0.00 73 1008.1
20260510010233 26 93 1.6 6.4 0.00 0.00 0.00 73 1008.1
20260510005231 26 181 1.6 4.8 0.00 0.00 0.00 74 1008.0
20260510004732 26 215 1.6 6.4 0.00 0.00 0.00 73 1008.0
20260510004231 26 0 3.2 9.7 0.00 0.00 0.00 73 1008.0
20260510003728 26 109 3.2 9.7 0.00 0.00 0.00 71 1008.0
20260510003229 27 130 3.2 9.7 0.00 0.00 0.00 70 1007.8
20260510002729 27 151 4.8 11.3 0.00 0.00 0.00 69 1007.8
20260510001229 28 104 4.8 11.3 0.00 0.00 0.00 68 1007.6
20260510000728 28 107 4.8 11.3 0.00 0.00 0.00 67 1007.6
20260510000229 28 156 4.8 16.1 0.00 0.00 0.00 70 1007.5
20260509235729 29 86 4.8 16.1 0.00 0.00 0.00 68 1007.3
20260509235230 29 124 4.8 14.5 0.00 0.00 0.00 69 1007.1
20260509234729 30 126 6.4 14.5 0.00 0.00 0.00 68 1007.2
20260509234226 30 111 4.8 12.9 0.00 0.00 0.00 70 1007.1
20260509233724 30 48 3.2 8.0 0.00 0.00 0.00 71 1007.0
20260509233220 30 120 4.8 11.3 0.00 0.00 0.00 70 1007.0
20260509232721 30 133 4.8 11.3 0.00 0.00 0.00 71 1007.0
20260509232220 30 125 3.2 9.7 0.00 0.00 0.00 71 1007.0
20260509231720 30 140 3.2 8.0 0.00 0.00 0.00 69 1007.0
20260509230220 28 0 1.6 4.8 0.00 0.00 0.00 72 1007.0
20260509225717 28 68 1.6 4.8 0.00 0.00 0.00 73 1006.9
20260509224217 27 32 0.0 3.2 0.00 0.00 0.00 75 1007.0
20260509223718 28 0 0.0 3.2 0.00 0.00 0.00 75 1007.0
20260509223218 28 339 1.6 4.8 0.00 0.00 0.00 73 1007.0
20260509222719 28 240 3.2 6.4 0.00 0.00 0.00 73 1006.9
20260509222217 28 261 3.2 6.4 0.00 0.00 0.00 72 1006.8
20260509221718 29 254 3.2 8.0 0.00 0.00 0.00 71 1006.6
20260509221218 30 216 1.6 8.0 0.00 0.00 0.00 70 1006.6
20260509215715 31 0 1.6 3.2 0.00 0.00 0.00 65 1006.3
20260509215214 31 0 1.6 3.2 0.00 0.00 0.00 64 1006.3
20260509214713 31 265 1.6 8.0 0.00 0.00 0.00 61 1006.2
20260509214213 31 113 1.6 8.0 0.00 0.00 0.00 58 1006.3
20260509213210 32 261 3.2 6.4 0.00 0.00 0.00 59 1006.3
20260509212711 32 252 1.6 6.4 0.00 0.00 0.00 59 1006.3
20260509212209 32 0 1.6 4.8 0.00 0.00 0.00 59 1006.4
20260509211709 32 217 1.6 4.8 0.00 0.00 0.00 58 1006.4
20260509211210 32 286 3.2 8.0 0.00 0.00 0.00 57 1006.3
20260509210710 32 57 3.2 8.0 0.00 0.00 0.00 55 1006.3
20260509210211 32 263 3.2 8.0 0.00 0.00 0.00 57 1006.3
20260509205709 32 257 3.2 8.0 0.00 0.00 0.00 55 1006.3
20260509205210 32 275 3.2 6.4 0.00 0.00 0.00 58 1006.3
20260509204711 32 87 3.2 9.7 0.00 0.00 0.00 55 1006.4
20260509204207 32 52 4.8 9.7 0.00 0.00 0.00 53 1006.7
20260509203705 33 244 3.2 6.4 0.00 0.00 0.00 56 1006.7
20260509203205 32 239 3.2 6.4 0.00 0.00 0.00 55 1006.7
20260509202704 32 82 3.2 8.0 0.00 0.00 0.00 53 1006.8
20260509202205 32 208 3.2 9.7 0.00 0.00 0.00 57 1007.0
20260509201702 32 241 3.2 9.7 0.00 0.00 0.00 58 1007.1
20260509201202 32 278 3.2 9.7 0.00 0.00 0.00 59 1007.2
20260509200701 32 249 4.8 9.7 0.00 0.00 0.00 61 1007.4
20260509195201 32 210 3.2 11.3 0.00 0.00 0.00 60 1007.4
20260509194703 31 237 4.8 11.3 0.00 0.00 0.00 60 1007.4
20260509194202 31 257 3.2 8.0 0.00 0.00 0.00 61 1007.4
20260509193702 31 193 3.2 9.7 0.00 0.00 0.00 62 1007.5
20260509193201 31 238 3.2 9.7 0.00 0.00 0.00 61 1007.5
20260509192702 30 28 3.2 6.4 0.00 0.00 0.00 62 1007.6
20260509192203 30 261 3.2 6.4 0.00 0.00 0.00 67 1007.6
20260509191702 31 269 3.2 6.4 0.00 0.00 0.00 64 1007.6
20260509191201 31 227 3.2 6.4 0.00 0.00 0.00 65 1007.7
20260509190659 31 239 3.2 6.4 0.00 0.00 0.00 64 1007.8
20260509190156 31 7 3.2 9.7 0.00 0.00 0.00 63 1007.9
20260509185153 30 13 3.2 6.4 0.00 0.00 0.00 65 1008.1
20260509184653 30 228 3.2 6.4 0.00 0.00 0.00 67 1008.3
20260509184154 30 306 3.2 8.0 0.00 0.00 0.00 67 1008.4
20260509182154 30 130 3.2 8.0 0.00 0.00 0.00 66 1008.5
20260509181653 30 325 3.2 8.0 0.00 0.00 0.00 69 1008.8
20260509181154 29 0 1.6 4.8 0.00 0.00 0.00 71 1008.9
20260509180654 29 0 1.6 4.8 0.00 0.00 0.00 69 1008.9
20260509180154 28 291 1.6 4.8 0.00 0.00 0.00 71 1009.1
20260509173152 29 242 3.2 9.7 0.00 0.00 0.00 70 1009.2
20260509172650 28 281 3.2 8.0 0.00 0.00 0.00 71 1009.2
20260509172151 28 0 3.2 8.0 0.00 0.00 0.00 73 1009.3
20260509171649 29 263 3.2 8.0 0.00 0.00 0.00 73 1009.1
20260509171148 28 302 3.2 8.0 0.00 0.00 0.00 73 1009.1
20260509170649 28 248 3.2 9.7 0.00 0.00 0.00 74 1009.2
20260509170149 28 276 3.2 9.7 0.00 0.00 0.00 76 1009.4
20260509165648 28 264 3.2 9.7 0.00 0.00 0.00 76 1009.3
20260509165149 28 196 3.2 9.7 0.00 0.00 0.00 76 1009.4
20260509164649 27 280 3.2 9.7 0.00 0.00 0.00 78 1009.5
20260509164149 27 284 3.2 8.0 0.00 0.00 0.00 80 1009.4
20260509163649 28 274 3.2 9.7 0.00 0.00 0.00 78 1009.4
20260509163150 27 173 3.2 11.3 0.00 0.00 0.00 80 1009.5
20260509161649 27 260 3.2 6.4 0.00 0.00 0.00 82 1009.8
20260509161145 26 110 3.2 6.4 0.00 0.00 0.00 83 1009.8
20260509155642 25 200 3.2 8.0 0.00 0.00 0.00 88 1010.0
20260509155144 25 122 1.6 6.4 0.00 0.00 0.00 88 1010.0
20260509154643 24 127 1.6 6.4 0.00 0.00 0.00 91 1010.1
20260509154143 24 101 1.6 4.8 0.00 0.00 0.00 93 1010.1
20260509153644 23 78 3.2 6.4 0.00 0.00 0.00 93 1010.2
20260509153144 23 106 3.2 6.4 0.00 0.00 0.00 95 1010.2
20260509152644 23 96 3.2 6.4 0.00 0.00 0.00 95 1010.1
20260509152144 23 117 3.2 4.8 0.00 0.00 0.00 96 1010.1
20260509150644 23 101 1.6 4.8 0.00 0.00 0.00 97 1010.4
20260509150144 23 0 1.6 4.8 0.00 0.00 0.00 97 1010.5
20260509145645 23 153 3.2 4.8 0.00 0.00 0.00 97 1010.6
20260509145143 23 244 1.6 3.2 0.00 0.00 0.00 97 1010.7
20260509144642 23 257 1.6 3.2 0.00 0.00 0.00 97 1010.5
20260509144142 23 201 0.0 3.2 0.00 0.00 0.00 98 1010.6
20260509143642 23 0 0.0 1.6 0.00 0.00 0.00 98 1010.6
20260509143143 23 216 0.0 1.6 0.00 0.00 0.00 97 1010.7
20260509142643 23 0 0.0 1.6 0.00 0.00 0.00 97 1010.7
20260509142142 23 160 0.0 1.6 0.00 0.00 0.00 97 1010.5
20260509141642 23 0 0.0 1.6 0.00 0.00 0.00 97 1010.5
20260509141143 22 0 0.0 3.2 0.00 0.00 0.00 97 1010.4
20260509140629 23 17 1.6 3.2 0.00 0.00 0.00 97 1010.4
20260509140129 22 124 1.6 3.2 0.00 0.00 0.00 97 1010.2
20260509135630 22 48 1.6 3.2 0.00 0.00 0.00 97 1010.2
20260509135128 22 0 0.0 3.2 0.00 0.00 0.00 97 1010.3
20260509134630 22 0 0.0 1.6 0.00 0.00 0.00 97 1010.4
20260509134129 22 0 1.6 3.2 0.00 0.00 0.00 97 1010.4
20260509133629 22 104 1.6 3.2 0.00 0.00 0.00 97 1010.6
20260509133130 22 59 1.6 3.2 0.00 0.00 0.00 97 1010.4
20260509132630 22 86 0.0 3.2 0.00 0.00 0.00 97 1010.5
20260509132129 22 353 1.6 3.2 0.00 0.00 0.00 97 1010.6
20260509131615 22 62 1.6 3.2 0.00 0.00 0.00 97 1010.6
20260509131115 22 127 1.6 3.2 0.00 0.00 0.00 97 1010.7
20260509130600 22 63 1.6 3.2 0.00 0.00 0.00 97 1010.5
20260509130100 22 93 1.6 3.2 0.00 0.00 0.00 97 1010.5
20260509125600 22 101 1.6 3.2 0.00 0.00 0.00 97 1010.4
20260509124600 22 1 0.0 3.2 0.00 0.00 0.00 97 1010.3
20260509124100 22 0 0.0 1.6 0.00 0.00 0.00 97 1010.2
20260509123545 22 0 1.6 3.2 0.00 0.00 0.00 97 1010.3
20260509123046 22 64 1.6 3.2 0.00 0.00 0.00 97 1010.3
20260509122545 22 36 1.6 3.2 0.00 0.00 0.00 97 1010.4
20260509122046 22 160 1.6 3.2 0.00 0.00 0.00 97 1010.4
20260509121546 22 126 1.6 3.2 0.00 0.00 0.00 97 1010.5
20260509121049 22 100 0.0 1.6 0.00 0.00 0.00 97 1010.5
20260509120546 22 109 0.0 1.6 0.00 0.00 0.00 97 1010.5
20260509120045 22 94 1.6 3.2 0.00 0.00 0.00 97 1010.4
20260509115530 22 127 1.6 3.2 0.00 0.00 0.00 97 1010.4
20260509115032 22 293 1.6 3.2 0.00 0.00 0.00 97 1010.3
20260509114016 22 304 1.6 3.2 0.00 0.00 0.00 97 1010.2
20260509113516 22 0 1.6 3.2 0.00 0.00 0.00 97 1010.3
20260509113002 22 203 0.0 3.2 0.00 0.00 0.00 97 1010.3
20260509112501 22 290 0.0 3.2 0.00 0.00 0.00 97 1010.3
20260509112002 22 0 0.0 1.6 0.00 0.00 0.00 97 1010.3
20260509111446 22 0 0.0 3.2 0.00 0.00 0.00 97 1010.1
20260509110947 22 103 0.0 3.2 0.00 0.00 0.00 97 1010.2
20260509110447 22 67 1.6 3.2 0.00 0.00 0.00 97 1010.3
20260509105947 22 145 1.6 3.2 0.00 0.00 0.00 96 1010.3
20260509105447 22 179 0.0 3.2 0.00 0.00 0.00 96 1010.3
20260509104947 22 0 0.0 1.6 0.00 0.00 0.00 96 1010.4
20260509104445 22 0 0.0 1.6 0.00 0.00 0.00 96 1010.4
20260509103945 22 0 0.0 1.6 0.00 0.00 0.00 96 1010.3
20260509103445 22 0 0.0 1.6 0.00 0.00 0.00 96 1010.3
20260509102946 22 0 0.0 1.6 0.00 0.00 0.00 96 1010.2
20260509102445 22 0 0.0 3.2 0.00 0.00 0.00 96 1010.2
20260509101945 22 0 0.0 3.2 0.00 0.00 0.00 96 1010.3
20260509101435 22 238 1.6 3.2 0.00 0.00 0.00 96 1010.3
20260509100935 22 0 1.6 3.2 0.00 0.00 0.00 96 1010.2
20260509100436 22 83 0.0 1.6 0.00 0.00 0.00 96 1010.1
20260509095436 22 0 0.0 3.2 0.00 0.00 0.00 96 1009.9
20260509094935 22 0 0.0 4.8 0.00 0.00 0.00 96 1009.8
20260509093433 22 94 3.2 8.0 0.00 0.00 0.00 96 1009.6
20260509092933 22 103 1.6 3.2 0.00 0.00 0.00 96 1009.8
20260509092433 22 91 0.0 3.2 0.00 0.00 0.00 96 1010.0
20260509091934 22 69 0.0 3.2 0.00 0.00 0.00 96 1009.8
20260509091433 22 0 0.0 3.2 0.00 0.00 0.00 96 1009.8
20260509090933 22 6 1.6 3.2 0.00 0.00 0.00 96 1009.6
20260509090434 22 0 1.6 4.8 0.00 0.00 0.00 96 1009.4
20260509085933 22 124 1.6 4.8 0.00 0.00 0.00 96 1009.5
20260509085433 22 0 1.6 4.8 0.00 0.00 0.00 96 1009.8
20260509084934 22 104 1.6 3.2 0.00 0.00 0.00 96 1010.0
20260509084434 22 109 0.0 3.2 0.00 0.00 0.00 96 1010.0
20260509083933 22 0 0.0 1.6 0.00 0.00 0.00 96 1010.0
20260509083433 22 0 1.6 4.8 0.00 0.00 0.00 96 1010.0
20260509082931 22 63 1.6 4.8 0.00 0.00 0.00 96 1010.0
20260509082432 22 75 0.0 3.2 0.00 0.00 0.00 96 1010.0
20260509081428 22 88 1.6 3.2 0.00 0.00 0.00 96 1009.9
20260509080928 22 78 0.0 3.2 0.00 0.00 0.00 96 1009.8
20260509080428 22 0 1.6 4.8 0.00 0.00 0.00 96 1010.0
20260509075926 22 99 1.6 4.8 0.00 0.00 0.00 96 1009.9
20260509075425 22 67 1.6 4.8 0.00 0.00 0.00 96 1009.9
20260509074925 22 91 1.6 4.8 0.00 0.00 0.00 96 1009.8
20260509074425 22 0 0.0 3.2 0.00 0.00 0.00 96 1009.8
20260509073926 22 94 0.0 3.2 0.00 0.00 0.00 96 1009.8
20260509072925 22 93 1.6 4.8 0.00 0.00 0.00 96 1009.7
20260509072425 22 72 1.6 4.8 0.00 0.00 0.00 96 1009.9
20260509071926 22 137 1.6 4.8 0.00 0.00 0.00 96 1009.8
20260509070926 22 154 1.6 6.4 0.00 0.00 0.00 96 1009.7
20260509070425 22 122 1.6 6.4 0.00 0.00 0.00 96 1009.8
20260509065927 22 161 1.6 6.4 0.00 0.00 0.00 96 1009.9
20260509065426 22 155 3.2 6.4 0.00 0.00 0.00 96 1010.0
20260509064926 22 97 3.2 8.0 0.00 0.00 0.00 96 1009.8
20260509064423 22 92 3.2 8.0 0.00 0.00 0.00 96 1009.8
20260509063924 22 181 3.2 9.7 0.00 0.00 0.00 96 1009.9
20260509063423 22 115 3.2 9.7 0.00 0.00 0.00 96 1009.8
20260509062924 22 95 3.2 9.7 0.00 0.00 0.00 96 1009.8
20260509062423 22 89 3.2 9.7 0.00 0.00 0.00 96 1009.8
20260509061923 22 50 3.2 8.0 0.00 0.00 0.00 96 1009.9
20260509061423 22 196 3.2 9.7 0.00 0.00 0.00 96 1009.9
20260509060924 22 96 3.2 9.7 0.00 0.00 0.00 96 1009.8
20260509060423 22 252 3.2 9.7 0.00 0.00 0.00 95 1009.8
20260509055924 22 186 3.2 9.7 0.00 0.00 0.00 95 1009.8
20260509055423 22 212 3.2 9.7 0.00 0.00 0.00 95 1009.8
20260509054923 22 105 3.2 12.9 0.00 0.00 0.00 95 1009.9
20260509054425 22 156 4.8 12.9 0.00 0.00 0.00 95 1009.9
20260509053924 22 148 4.8 14.5 0.00 0.00 0.00 95 1010.0
20260509053424 22 160 4.8 14.5 0.00 0.00 0.00 95 1010.0
20260509052924 22 100 4.8 11.3 0.00 0.00 0.00 95 1010.0
20260509052424 22 82 4.8 12.9 0.00 0.00 0.00 95 1009.9
20260509051925 22 81 3.2 12.9 0.00 0.00 0.00 94 1009.9
20260509051422 22 104 3.2 8.0 0.00 0.00 0.00 94 1009.8
20260509050918 22 102 3.2 8.0 0.00 0.00 0.00 94 1009.8
20260509050418 22 117 3.2 9.7 0.00 0.00 0.00 94 1009.8
20260509045918 22 111 3.2 11.3 0.00 0.00 0.00 94 1009.8
20260509045418 22 133 3.2 11.3 0.00 0.00 0.00 94 1009.9
20260509044915 22 165 3.2 8.0 0.00 0.00 0.00 94 1010.0
20260509044416 22 75 3.2 9.7 0.00 0.00 0.00 94 1009.9
20260509043415 22 113 4.8 9.7 0.00 0.00 0.00 94 1010.0
20260509042915 22 118 3.2 9.7 0.00 0.00 0.00 94 1010.1
20260509042417 22 105 1.6 4.8 0.00 0.00 0.00 93 1010.1
20260509040916 22 126 3.2 8.0 0.00 0.00 0.00 93 1010.0
20260509040416 22 202 4.8 9.7 0.00 0.00 0.00 93 1010.0
20260509035415 22 105 4.8 9.7 0.00 0.00 0.00 93 1009.8
20260509034413 22 115 4.8 14.5 0.00 0.00 0.00 93 1009.9
20260509033914 22 119 3.2 9.7 0.00 0.00 0.00 93 1009.9
20260509033413 22 137 3.2 9.7 0.00 0.00 0.00 93 1009.9
20260509032913 22 115 3.2 8.0 0.00 0.00 0.00 93 1009.9
20260509032413 23 115 3.2 8.0 0.00 0.00 0.00 92 1009.8
20260509031913 23 108 1.6 6.4 0.00 0.00 0.00 92 1009.6
20260509031413 23 114 1.6 6.4 0.00 0.00 0.00 92 1009.6
20260509030914 23 137 3.2 6.4 0.00 0.00 0.00 91 1009.5
20260509030414 23 135 3.2 6.4 0.00 0.00 0.00 91 1009.3
20260509025914 23 76 3.2 9.7 0.00 0.00 0.00 91 1009.4
20260509025413 23 117 3.2 9.7 0.00 0.00 0.00 91 1009.3
20260509024914 23 0 1.6 6.4 0.00 0.00 0.00 90 1009.2
20260509024413 23 0 3.2 6.4 0.00 0.00 0.00 90 1009.2
20260509023914 23 140 3.2 6.4 0.00 0.00 0.00 90 1009.1
20260509023411 23 255 3.2 6.4 0.00 0.00 0.00 90 1009.1
20260509022911 23 120 3.2 6.4 0.00 0.00 0.00 90 1009.1
20260509022412 23 151 3.2 6.4 0.00 0.00 0.00 90 1009.0
20260509021908 23 127 1.6 6.4 0.00 0.00 0.00 89 1009.0
20260509021409 23 129 1.6 4.8 0.00 0.00 0.00 89 1008.9
20260509020908 23 127 1.6 4.8 0.00 0.00 0.00 89 1008.8
20260509020406 23 133 1.6 4.8 0.00 0.00 0.00 89 1008.8
20260509015905 23 88 1.6 4.8 0.00 0.00 0.00 88 1008.7
20260509015405 23 0 1.6 4.8 0.00 0.00 0.00 88 1008.5
20260509014902 24 0 1.6 3.2 0.00 0.00 0.00 88 1008.5
20260509014403 24 47 1.6 3.2 0.00 0.00 0.00 87 1008.4
20260509013903 24 124 1.6 4.8 0.00 0.00 0.00 87 1008.3
20260509013403 24 100 1.6 4.8 0.00 0.00 0.00 87 1008.4
20260509012903 24 107 1.6 4.8 0.00 0.00 0.00 87 1008.5
20260509012403 24 0 1.6 3.2 0.00 0.00 0.00 87 1008.4